sat.trackr.live / text

‹ back to catalog

ONEWEB-0215

NORAD 48800 · 2021-045AK

PAYLOAD ACTIVE UNKNOWN

§ Identity

Operator
Country
UK
Launch date
2021-05-28
Launch site
VOSTO
Launch vehicle
Mass (kg)
RCS (m²)

Purposes: comms

External: N2YO · Heavens-Above · Gunter

§ Orbital elements

Epoch: 2026-09-11T23:05:17.124000Z

Period
109.46 min
Inclination
87.8982°
Eccentricity
0.0002271
Mean motion
13.15549638 rev/d
Perigee alt
1,200.0 km
Apogee alt
1,203.5 km
Semi-major
7,579.9 km
B*
3.7921e-4
RAAN
241.8847°
Arg perigee
66.4952°
Mean anomaly
293.6417°
Rev number
25,570

§ Raw data

ONEWEB-02151 48800U 21045AK  26254.96200375  .00000156  00000+0  37921-3 0  99992 48800  87.8982 241.8847 0002271  66.4952 293.6417 13.15549638255708

JSON: /api/v1/satellites/48800 · /tle

For live sub-satellite position, see the globe view (requires WebGL).

§ Visibility from observer

Set your observer location to see the next 7 days of passes ≥ 10°. The values pass through the URL so the page stays shareable.

No JS? Fill the form by hand. The geolocation button needs JavaScript.